Tracking 18785 objects as of 26-July-2017
HD Live streaming from Space Station
objects crossing your sky now
MAYAK may become the brightest orbital object in the night sky!
Where is MAYAK now?
How to spot MAYAK

METEOSAT 9 (MSG 2)

Track METEOSAT 9 (MSG 2) now!
METEOSAT 9 (MSG 2) is classified as:


NORAD ID: 28912
Int'l Code: 2005-049B
Perigee: 35,791.0 km
Apogee: 35,791.8 km
Inclination: 2.3 °
Period: 1,436.0 minutes
Semi major axis: 42162 km
RCS: 2.0767 m2 (large)
Launch date: December 21, 2005
Source: European Organisation for the Exploitation of Meteorological Satellites (EUME)
Launch site: FRENCH GUIANA (FRGUI)
Your satellite tracking list
Your tracking list is empty





NASA's NSSDC Master Catalog

Two Line Element Set (TLE):
1 28912U 05049B   17207.19667484 +.00000040 +00000-0 +00000-0 0  9996
2 28912 002.2771 071.2374 0000097 233.6974 079.5619 01.00280267042466
Source of the keplerian elements: AFSPC